Weather in Shirokoe

Ukraine / Odesa District     45°57′59″N   30°05′25″E
temp.,
°C
wind,
m/s
gust,
m/s
humid.,
%
clouds,
%
prec.,
mm/h
press.,
hPa
HPBL,
m
12 may, wed
wed1200:00+13ene34875 0.0 101464
03:00+12ene349421 0.0 101382
06:00+11ene358898 0.0 1013114
09:00+12e6774100 0.0 1013568
12:00+10e3584100 0.9 1014400
15:00+10se3382100 1.4 1014456
18:00+11ese237691 0.1 1013297
21:00+11ese1176100 0.1 101238
13 may, thu
thu1300:00+10ese1173100 0.0 101213
03:00+10ene2374100 0.1 101180
06:00+11ese3774100 0.0 1010215
09:00+13se5764100 0.0 1010577
12:00+12se4781100 1.0 1011454
15:00+16sse796468 1.1 1009856
18:00+15sse7963100 0.0 1009591
21:00+11se488697 0.0 1008157
14 may, fri
fri1400:00+12sse4882100 0.0 1008152
03:00+11s489386 0.0 1008153
06:00+12s379440 0.0 1007156
09:00+17sw56737 0.0 1008675
12:00+21sw68526 0.0 10081575
15:00+22ssw694724 0.0 10082182
18:00+20w475734 0.0 1009436
21:00+18s346371 0.0 101072
15 may, sat
sat1500:00+16ssw367498 0.0 1010149
03:00+14sw3384100 0.0 101031
06:00+13ssw368292 0.0 1011107
09:00+19sw45594 0.0 1011483
12:00+23s56470 0.0 10121633
15:00+22sse665345 0.0 1011714
18:00+19sse566694 0.0 1011360
21:00+15se3592100 0.0 101189
16 may, sun
sun1600:00+14se3391100 0.0 101034
03:00+13e349197 0.0 101050
06:00+14e3386100 0.0 100957
09:00+19e4565100 0.0 1009484
12:00+19e4460100 0.0 1009523
15:00+19ese5766100 0.1 1008416
18:00+18n3474100 0.1 1006119
21:00+16w2276100 0.1 100516